This is the latest recevied weather packets stored in our database for station/object DG0LHZ-10. If no packets are shown the sender has not sent any weather packets the latest 10 day(s).
| Time | Temp. | Humidity | Pressure | Rain* | Wind** | Luminosity | Snow |
|---|---|---|---|---|---|---|---|
| 1777751356 | 23.33° C | 28% | 1017.8 hPa | - | - | - | - |
| 1777750456 | 23.89° C | 28% | 1018 hPa | - | - | - | - |
| 1777749556 | 24.44° C | 27% | 1017.8 hPa | - | - | - | - |
| 1777748656 | 25.56° C | 27% | 1017.8 hPa | - | - | - | - |
| 1777747756 | 26.11° C | 26% | 1017.9 hPa | - | - | - | - |
| 1777746856 | 26.67° C | 25% | 1017.9 hPa | - | - | - | - |
| 1777745956 | 27.22° C | 25% | 1017.9 hPa | - | - | - | - |
| 1777745056 | 28.33° C | 25% | 1017.8 hPa | - | - | - | - |
| 1777744156 | 28.89° C | 24% | 1018 hPa | - | - | - | - |
| 1777743256 | 29.44° C | 24% | 1017.9 hPa | - | - | - | - |
| 1777742356 | 30.56° C | 24% | 1018.1 hPa | - | - | - | - |
| 1777741456 | 31.11° C | 23% | 1018.1 hPa | - | - | - | - |
| 1777740556 | 31.67° C | 23% | 1018.3 hPa | - | - | - | - |
| 1777739656 | 32.22° C | 22% | 1018.5 hPa | - | - | - | - |
| 1777738755 | 32.22° C | 23% | 1018.7 hPa | - | - | - | - |
| 1777737855 | 32.78° C | 22% | 1018.9 hPa | - | - | - | - |
| 1777736955 | 32.78° C | 22% | 1019.1 hPa | - | - | - | - |
| 1777736055 | 33.33° C | 22% | 1019.3 hPa | - | - | - | - |
| 1777735155 | 32.78° C | 22% | 1019.4 hPa | - | - | - | - |
| 1777734255 | 33.33° C | 23% | 1019.6 hPa | - | - | - | - |
| 1777733355 | 33.33° C | 22% | 1019.9 hPa | - | - | - | - |
| 1777732455 | 33.33° C | 22% | 1020.2 hPa | - | - | - | - |
| 1777731555 | 32.78° C | 23% | 1020.4 hPa | - | - | - | - |
| 1777730655 | 32.78° C | 24% | 1020.5 hPa | - | - | - | - |
| 1777729755 | 32.22° C | 23% | 1020.6 hPa | - | - | - | - |
* Rain since midnight (hover to see other rain measurements)
** Current wind speed in m/s (hover to see current wind gust speed)